Location: Unspecified
(0.0000°N, 0.0000°E)
Time: 19:37:40
(UTC+00:00)

Transit 4A - Pass Details

Date: 31 May 2022
Orbit: 864 x 980 km, 66.8° (Epoch: 26 June)

Event Time Altitude Azimuth Distance (km) Brightness Sun altitude
Rises 13:39:49 0° 321° (NW) 3,523 11.4 56.8°
Reaches altitude 10° 13:42:37 10° 311° (NW) 2,565 11.0 56.3°
Maximum altitude 13:47:45 31° 251° (WSW) 1,508 9.8 55.3°
Drops below altitude 10° 13:52:48 10° 190° (S) 2,519 10.1 54.4°
Sets 13:55:33 0° 179° (S) 3,450 10.6 53.9°
